Terug naar catalogus

COSMOS 2463

ActiefNavigatiePO
NORAD 36519·PAYLOAD·🇷🇺 Russia

Gelanceerd Apr 27, 2010 vanaf Plesetsk Cosmodrome

Loading…

Volgende Passages (komende 24 uur)

TLE

VersSource: Space-Track

Epoch: Sep 13, 2026, 21:23 UTC

1 36519U 10017A   26256.89141479  .00000048  00000-0  36920-4 0  9993
2 36519  82.9641 184.5376 0034774 243.1782 179.2807 13.71670185820094

Volg COSMOS 2463 in realtime met AllMySat

Download on the App Store